| time (UTC) | temp C | wind direction | speed KPH | gust KPH | rain 1hr cm | rain 24hr cm | rain mn cm | humidity % | barometer mb |
| 20260509054518 | 23 | 68 | 17.7 | 27.4 | 0.00 | 0.00 | 0.00 | 27 | 1018.4 |
| 20260509054018 | 23 | 68 | 12.9 | 24.1 | 0.00 | 0.00 | 0.00 | 26 | 1018.4 |
| 20260509053539 | 23 | 45 | 9.7 | 19.3 | 0.00 | 0.00 | 0.00 | 27 | 1018.5 |
| 20260509053006 | 23 | 23 | 6.4 | 14.5 | 0.00 | 0.00 | 0.00 | 27 | 1018.5 |
| 20260509052518 | 23 | 45 | 14.5 | 22.5 | 0.00 | 0.00 | 0.00 | 27 | 1018.5 |
| 20260509052018 | 23 | 68 | 16.1 | 27.4 | 0.00 | 0.00 | 0.00 | 28 | 1018.6 |
| 20260509051518 | 23 | 68 | 11.3 | 22.5 | 0.00 | 0.00 | 0.00 | 28 | 1018.7 |
| 20260509051018 | 23 | 45 | 16.1 | 25.7 | 0.00 | 0.00 | 0.00 | 28 | 1018.9 |
| 20260509050518 | 23 | 68 | 16.1 | 22.5 | 0.00 | 0.00 | 0.00 | 28 | 1018.9 |
| 20260509050006 | 23 | 68 | 16.1 | 24.1 | 0.00 | 0.00 | 0.00 | 28 | 1018.9 |
| 20260509045518 | 23 | 45 | 17.7 | 25.7 | 0.00 | 0.00 | 0.00 | 28 | 1018.9 |
| 20260509045039 | 23 | 45 | 17.7 | 27.4 | 0.00 | 0.00 | 0.00 | 29 | 1018.9 |
| 20260509044518 | 23 | 45 | 19.3 | 27.4 | 0.00 | 0.00 | 0.00 | 29 | 1019.0 |
| 20260509044018 | 23 | 45 | 17.7 | 25.7 | 0.00 | 0.00 | 0.00 | 28 | 1019.1 |
| 20260509043518 | 22 | 45 | 19.3 | 30.6 | 0.00 | 0.00 | 0.00 | 29 | 1019.1 |
| 20260509043008 | 22 | 68 | 20.9 | 29.0 | 0.00 | 0.00 | 0.00 | 29 | 1019.2 |
| 20260509042518 | 22 | 45 | 20.9 | 30.6 | 0.00 | 0.00 | 0.00 | 29 | 1019.2 |
| 20260509042018 | 22 | 45 | 19.3 | 30.6 | 0.00 | 0.00 | 0.00 | 29 | 1019.5 |
| 20260509041519 | 22 | 45 | 22.5 | 32.2 | 0.00 | 0.00 | 0.00 | 29 | 1019.5 |
| 20260509041039 | 22 | 45 | 22.5 | 33.8 | 0.00 | 0.00 | 0.00 | 29 | 1019.7 |
| 20260509040518 | 22 | 45 | 24.1 | 33.8 | 0.00 | 0.00 | 0.00 | 29 | 1019.8 |
| 20260509040008 | 22 | 45 | 22.5 | 35.4 | 0.00 | 0.00 | 0.00 | 29 | 1019.8 |
| 20260509035523 | 22 | 45 | 25.7 | 33.8 | 0.00 | 0.00 | 0.00 | 30 | 1019.9 |
| 20260509035019 | 22 | 45 | 24.1 | 33.8 | 0.00 | 0.00 | 0.00 | 29 | 1020.1 |
| 20260509034518 | 22 | 45 | 27.4 | 35.4 | 0.00 | 0.00 | 0.00 | 30 | 1020.4 |
| 20260509034018 | 21 | 45 | 24.1 | 35.4 | 0.00 | 0.00 | 0.00 | 31 | 1020.5 |
| 20260509033518 | 22 | 45 | 25.7 | 35.4 | 0.00 | 0.00 | 0.00 | 30 | 1020.5 |
| 20260509033009 | 22 | 45 | 25.7 | 37.0 | 0.00 | 0.00 | 0.00 | 31 | 1020.6 |
| 20260509032518 | 21 | 45 | 27.4 | 37.0 | 0.00 | 0.00 | 0.00 | 31 | 1020.7 |
| 20260509032038 | 22 | 45 | 27.4 | 37.0 | 0.00 | 0.00 | 0.00 | 31 | 1020.7 |
| 20260509031539 | 21 | 45 | 25.7 | 38.6 | 0.00 | 0.00 | 0.00 | 32 | 1020.7 |
| 20260509031018 | 21 | 45 | 24.1 | 35.4 | 0.00 | 0.00 | 0.00 | 31 | 1020.9 |
| 20260509030518 | 21 | 45 | 30.6 | 41.8 | 0.00 | 0.00 | 0.00 | 31 | 1021.0 |
| 20260509030007 | 21 | 45 | 29.0 | 40.2 | 0.00 | 0.00 | 0.00 | 32 | 1021.0 |
| 20260509025518 | 21 | 45 | 29.0 | 40.2 | 0.00 | 0.00 | 0.00 | 33 | 1021.1 |
| 20260509025018 | 20 | 45 | 27.4 | 37.0 | 0.00 | 0.00 | 0.00 | 33 | 1021.2 |
| 20260509024518 | 20 | 45 | 29.0 | 38.6 | 0.00 | 0.00 | 0.00 | 33 | 1021.3 |
| 20260509024018 | 20 | 45 | 29.0 | 41.8 | 0.00 | 0.00 | 0.00 | 33 | 1021.4 |
| 20260509023518 | 20 | 45 | 30.6 | 45.1 | 0.00 | 0.00 | 0.00 | 33 | 1021.3 |
| 20260509023010 | 20 | 45 | 30.6 | 38.6 | 0.00 | 0.00 | 0.00 | 33 | 1021.3 |
| 20260509022517 | 20 | 45 | 30.6 | 40.2 | 0.00 | 0.00 | 0.00 | 34 | 1021.4 |
| 20260509022018 | 20 | 68 | 33.8 | 41.8 | 0.00 | 0.00 | 0.00 | 35 | 1021.3 |
| 20260509021518 | 19 | 45 | 33.8 | 45.1 | 0.00 | 0.00 | 0.00 | 35 | 1021.4 |
| 20260509021038 | 19 | 45 | 32.2 | 41.8 | 0.00 | 0.00 | 0.00 | 36 | 1021.5 |
| 20260509020520 | 18 | 45 | 33.8 | 41.8 | 0.00 | 0.00 | 0.00 | 36 | 1021.5 |
| 20260509020013 | 18 | 45 | 32.2 | 45.1 | 0.00 | 0.00 | 0.00 | 37 | 1021.7 |
| 20260509015518 | 18 | 45 | 35.4 | 46.7 | 0.00 | 0.00 | 0.00 | 37 | 1021.5 |
| 20260509015019 | 18 | 45 | 32.2 | 43.5 | 0.00 | 0.00 | 0.00 | 37 | 1021.7 |
| 20260509014539 | 18 | 45 | 33.8 | 45.1 | 0.00 | 0.00 | 0.00 | 38 | 1021.6 |
| 20260509014018 | 18 | 45 | 32.2 | 41.8 | 0.00 | 0.00 | 0.00 | 38 | 1021.6 |
| 20260509013518 | 17 | 45 | 37.0 | 46.7 | 0.00 | 0.00 | 0.00 | 39 | 1021.6 |
| 20260509013029 | 17 | 68 | 37.0 | 46.7 | 0.00 | 0.00 | 0.00 | 39 | 1021.6 |
| 20260509012517 | 17 | 68 | 33.8 | 43.5 | 0.00 | 0.00 | 0.00 | 40 | 1021.5 |
| 20260509012018 | 17 | 45 | 33.8 | 43.5 | 0.00 | 0.00 | 0.00 | 40 | 1021.6 |
| 20260509011559 | 17 | 68 | 33.8 | 49.9 | 0.00 | 0.00 | 0.00 | 40 | 1021.6 |
| 20260509011018 | 17 | 45 | 35.4 | 49.9 | 0.00 | 0.00 | 0.00 | 42 | 1021.5 |
| 20260509010518 | 16 | 68 | 35.4 | 43.5 | 0.00 | 0.00 | 0.00 | 42 | 1021.6 |
| 20260509010008 | 16 | 68 | 33.8 | 43.5 | 0.00 | 0.00 | 0.00 | 43 | 1021.6 |
| 20260509005517 | 16 | 68 | 32.2 | 45.1 | 0.00 | 0.00 | 0.00 | 43 | 1021.7 |
| 20260509005017 | 16 | 68 | 33.8 | 43.5 | 0.00 | 0.00 | 0.00 | 43 | 1021.7 |
| 20260509004518 | 16 | 68 | 33.8 | 45.1 | 0.00 | 0.00 | 0.00 | 44 | 1021.6 |
| 20260509004038 | 16 | 68 | 33.8 | 45.1 | 0.00 | 0.00 | 0.00 | 45 | 1021.6 |
| 20260509003517 | 15 | 68 | 32.2 | 41.8 | 0.00 | 0.00 | 0.00 | 45 | 1021.6 |
| 20260509003012 | 15 | 68 | 33.8 | 43.5 | 0.00 | 0.00 | 0.00 | 46 | 1021.5 |
| 20260509002517 | 15 | 68 | 33.8 | 41.8 | 0.00 | 0.00 | 0.00 | 47 | 1021.6 |
| 20260509002017 | 15 | 68 | 35.4 | 46.7 | 0.00 | 0.00 | 0.00 | 48 | 1021.6 |
| 20260509001517 | 14 | 68 | 33.8 | 43.5 | 0.00 | 0.00 | 0.00 | 48 | 1021.4 |
| 20260509001017 | 14 | 68 | 32.2 | 41.8 | 0.00 | 0.00 | 0.00 | 49 | 1021.4 |
| 20260509000517 | 14 | 68 | 33.8 | 45.1 | 0.00 | 0.00 | 0.00 | 49 | 1021.4 |
| 20260509000009 | 13 | 68 | 30.6 | 41.8 | 0.00 | 0.00 | 0.00 | 50 | 1021.4 |
| 20260508235517 | 13 | 68 | 30.6 | 38.6 | 0.00 | 0.00 | 0.00 | 51 | 1021.5 |
| 20260508235017 | 13 | 68 | 29.0 | 38.6 | 0.00 | 0.00 | 0.00 | 51 | 1021.4 |
| 20260508234518 | 13 | 68 | 29.0 | 38.6 | 0.00 | 0.00 | 0.00 | 52 | 1021.5 |
| 20260508234017 | 13 | 68 | 27.4 | 35.4 | 0.00 | 0.00 | 0.00 | 52 | 1021.4 |
| 20260508233517 | 13 | 68 | 29.0 | 33.8 | 0.00 | 0.00 | 0.00 | 52 | 1021.3 |
| 20260508233027 | 12 | 68 | 25.7 | 33.8 | 0.00 | 0.00 | 0.00 | 53 | 1021.3 |
| 20260508232518 | 12 | 68 | 25.7 | 33.8 | 0.00 | 0.00 | 0.00 | 53 | 1021.3 |
| 20260508232017 | 12 | 68 | 24.1 | 30.6 | 0.00 | 0.00 | 0.00 | 54 | 1021.3 |
| 20260508231517 | 12 | 68 | 24.1 | 30.6 | 0.00 | 0.00 | 0.00 | 54 | 1021.2 |
| 20260508231017 | 12 | 68 | 24.1 | 30.6 | 0.00 | 0.00 | 0.00 | 55 | 1021.2 |
| 20260508230538 | 12 | 68 | 22.5 | 29.0 | 0.00 | 0.00 | 0.00 | 55 | 1021.2 |
| 20260508230007 | 12 | 68 | 20.9 | 25.7 | 0.00 | 0.00 | 0.00 | 55 | 1021.1 |
| 20260508225517 | 11 | 68 | 20.9 | 27.4 | 0.00 | 0.00 | 0.00 | 56 | 1021.1 |
| 20260508225017 | 12 | 68 | 20.9 | 25.7 | 0.00 | 0.00 | 0.00 | 56 | 1021.0 |
| 20260508224517 | 11 | 68 | 20.9 | 25.7 | 0.00 | 0.00 | 0.00 | 56 | 1021.0 |
| 20260508224017 | 12 | 68 | 22.5 | 30.6 | 0.00 | 0.00 | 0.00 | 55 | 1020.9 |
| 20260508223517 | 12 | 68 | 24.1 | 30.6 | 0.00 | 0.00 | 0.00 | 55 | 1020.9 |
| 20260508223007 | 12 | 68 | 24.1 | 30.6 | 0.00 | 0.00 | 0.00 | 55 | 1020.9 |
| 20260508222517 | 12 | 68 | 25.7 | 32.2 | 0.00 | 0.00 | 0.00 | 55 | 1020.9 |
| 20260508222017 | 12 | 68 | 25.7 | 32.2 | 0.00 | 0.00 | 0.00 | 55 | 1020.8 |
| 20260508221518 | 12 | 68 | 22.5 | 29.0 | 0.00 | 0.00 | 0.00 | 56 | 1020.7 |
| 20260508221018 | 12 | 68 | 22.5 | 29.0 | 0.00 | 0.00 | 0.00 | 56 | 1020.7 |
| 20260508220540 | 12 | 68 | 20.9 | 25.7 | 0.00 | 0.00 | 0.00 | 56 | 1020.6 |
| 20260508220008 | 12 | 68 | 20.9 | 29.0 | 0.00 | 0.00 | 0.00 | 55 | 1020.6 |
| 20260508215601 | 12 | 68 | 22.5 | 27.4 | 0.00 | 0.00 | 0.00 | 55 | 1020.6 |
| 20260508215017 | 12 | 68 | 20.9 | 32.2 | 0.00 | 0.00 | 0.00 | 54 | 1020.6 |
| 20260508214519 | 12 | 68 | 20.9 | 27.4 | 0.00 | 0.00 | 0.00 | 54 | 1020.8 |
| 20260508214019 | 12 | 68 | 22.5 | 30.6 | 0.00 | 0.00 | 0.00 | 54 | 1020.8 |
| 20260508213519 | 12 | 68 | 20.9 | 29.0 | 0.00 | 0.00 | 0.00 | 54 | 1020.8 |
| 20260508213008 | 12 | 68 | 20.9 | 27.4 | 0.00 | 0.00 | 0.00 | 54 | 1020.8 |
| 20260508212622 | 12 | 68 | 19.3 | 30.6 | 0.00 | 0.00 | 0.00 | 54 | 1020.8 |
| 20260508212019 | 12 | 68 | 20.9 | 29.0 | 0.00 | 0.00 | 0.00 | 54 | 1020.7 |
| 20260508211519 | 12 | 68 | 22.5 | 29.0 | 0.00 | 0.00 | 0.00 | 53 | 1020.6 |
| 20260508211019 | 12 | 68 | 20.9 | 30.6 | 0.00 | 0.00 | 0.00 | 54 | 1020.5 |
| 20260508210519 | 12 | 68 | 22.5 | 29.0 | 0.00 | 0.00 | 0.00 | 54 | 1020.5 |
| 20260508210007 | 12 | 68 | 20.9 | 29.0 | 0.00 | 0.00 | 0.00 | 54 | 1020.5 |
| 20260508205539 | 12 | 68 | 22.5 | 27.4 | 0.00 | 0.00 | 0.00 | 54 | 1020.5 |
| 20260508205019 | 13 | 68 | 22.5 | 29.0 | 0.00 | 0.00 | 0.00 | 53 | 1020.5 |
| 20260508204519 | 13 | 68 | 22.5 | 27.4 | 0.00 | 0.00 | 0.00 | 54 | 1020.6 |
| 20260508204019 | 12 | 68 | 22.5 | 30.6 | 0.00 | 0.00 | 0.00 | 54 | 1020.5 |
| 20260508203519 | 13 | 68 | 22.5 | 29.0 | 0.00 | 0.00 | 0.00 | 54 | 1020.5 |
| 20260508203006 | 13 | 68 | 22.5 | 29.0 | 0.00 | 0.00 | 0.00 | 54 | 1020.6 |
| 20260508202519 | 12 | 68 | 22.5 | 29.0 | 0.00 | 0.00 | 0.00 | 54 | 1020.5 |
| 20260508202100 | 12 | 68 | 20.9 | 27.4 | 0.00 | 0.00 | 0.00 | 55 | 1020.5 |
| 20260508201519 | 12 | 68 | 19.3 | 24.1 | 0.00 | 0.00 | 0.00 | 55 | 1020.6 |
| 20260508201019 | 12 | 68 | 17.7 | 24.1 | 0.00 | 0.00 | 0.00 | 55 | 1020.6 |
| 20260508200519 | 13 | 68 | 16.1 | 22.5 | 0.00 | 0.00 | 0.00 | 54 | 1020.6 |
| 20260508200007 | 13 | 68 | 14.5 | 24.1 | 0.00 | 0.00 | 0.00 | 54 | 1020.7 |
| 20260508195539 | 13 | 90 | 14.5 | 20.9 | 0.00 | 0.00 | 0.00 | 54 | 1020.7 |
| 20260508195100 | 13 | 90 | 12.9 | 19.3 | 0.00 | 0.00 | 0.00 | 54 | 1020.7 |
| 20260508194519 | 13 | 90 | 11.3 | 19.3 | 0.00 | 0.00 | 0.00 | 55 | 1020.7 |
| 20260508194019 | 13 | 90 | 12.9 | 17.7 | 0.00 | 0.00 | 0.00 | 55 | 1020.6 |
| 20260508193519 | 13 | 90 | 12.9 | 19.3 | 0.00 | 0.00 | 0.00 | 55 | 1020.7 |
| 20260508193008 | 13 | 68 | 14.5 | 19.3 | 0.00 | 0.00 | 0.00 | 55 | 1020.7 |
| 20260508192539 | 13 | 68 | 14.5 | 19.3 | 0.00 | 0.00 | 0.00 | 55 | 1020.7 |
| 20260508192039 | 13 | 90 | 12.9 | 17.7 | 0.00 | 0.00 | 0.00 | 55 | 1020.6 |
| 20260508191518 | 13 | 90 | 11.3 | 16.1 | 0.00 | 0.00 | 0.00 | 55 | 1020.7 |
| 20260508191039 | 13 | 90 | 11.3 | 17.7 | 0.00 | 0.00 | 0.00 | 55 | 1020.7 |
| 20260508190519 | 13 | 90 | 11.3 | 16.1 | 0.00 | 0.00 | 0.00 | 55 | 1020.7 |
| 20260508190006 | 13 | 90 | 11.3 | 14.5 | 0.00 | 0.00 | 0.00 | 55 | 1020.8 |
| 20260508185540 | 13 | 90 | 11.3 | 16.1 | 0.00 | 0.00 | 0.00 | 55 | 1020.7 |
| 20260508185039 | 13 | 90 | 11.3 | 16.1 | 0.00 | 0.00 | 0.00 | 55 | 1020.7 |
| 20260508184519 | 13 | 90 | 12.9 | 16.1 | 0.00 | 0.00 | 0.00 | 56 | 1020.7 |
| 20260508184019 | 13 | 90 | 11.3 | 16.1 | 0.00 | 0.00 | 0.00 | 57 | 1020.6 |
| 20260508183519 | 12 | 90 | 11.3 | 16.1 | 0.00 | 0.00 | 0.00 | 57 | 1020.6 |
| 20260508183006 | 12 | 68 | 12.9 | 16.1 | 0.00 | 0.00 | 0.00 | 58 | 1020.7 |
| 20260508182600 | 12 | 68 | 12.9 | 17.7 | 0.00 | 0.00 | 0.00 | 58 | 1020.7 |
| 20260508182019 | 12 | 68 | 11.3 | 16.1 | 0.00 | 0.00 | 0.00 | 59 | 1020.5 |
| 20260508181519 | 12 | 68 | 9.7 | 14.5 | 0.00 | 0.00 | 0.00 | 58 | 1020.6 |
| 20260508181019 | 12 | 90 | 9.7 | 12.9 | 0.00 | 0.00 | 0.00 | 58 | 1020.5 |
| 20260508180519 | 12 | 90 | 9.7 | 12.9 | 0.00 | 0.00 | 0.00 | 58 | 1020.4 |
| 20260508180007 | 12 | 68 | 9.7 | 12.9 | 0.00 | 0.00 | 0.00 | 58 | 1020.5 |
| 20260508175519 | 13 | 90 | 9.7 | 12.9 | 0.00 | 0.00 | 0.00 | 57 | 1020.5 |
| 20260508175040 | 13 | 90 | 9.7 | 12.9 | 0.00 | 0.00 | 0.00 | 57 | 1020.6 |
| 20260508174518 | 13 | 90 | 9.7 | 14.5 | 0.00 | 0.00 | 0.00 | 56 | 1020.7 |
| 20260508174019 | 13 | 68 | 11.3 | 16.1 | 0.00 | 0.00 | 0.00 | 56 | 1020.7 |
| 20260508173518 | 13 | 68 | 12.9 | 17.7 | 0.00 | 0.00 | 0.00 | 55 | 1020.6 |
| 20260508173006 | 13 | 68 | 12.9 | 16.1 | 0.00 | 0.00 | 0.00 | 55 | 1020.7 |
| 20260508172519 | 13 | 68 | 14.5 | 17.7 | 0.00 | 0.00 | 0.00 | 55 | 1020.7 |
| 20260508172039 | 13 | 68 | 14.5 | 19.3 | 0.00 | 0.00 | 0.00 | 55 | 1020.5 |
| 20260508171518 | 13 | 68 | 16.1 | 20.9 | 0.00 | 0.00 | 0.00 | 55 | 1020.6 |
| 20260508171018 | 13 | 68 | 16.1 | 20.9 | 0.00 | 0.00 | 0.00 | 55 | 1020.6 |
| 20260508170518 | 13 | 68 | 17.7 | 20.9 | 0.00 | 0.00 | 0.00 | 55 | 1020.6 |
| 20260508170008 | 13 | 68 | 17.7 | 22.5 | 0.00 | 0.00 | 0.00 | 55 | 1020.5 |
| 20260508165518 | 13 | 68 | 16.1 | 20.9 | 0.00 | 0.00 | 0.00 | 55 | 1020.6 |
| 20260508165100 | 13 | 68 | 16.1 | 20.9 | 0.00 | 0.00 | 0.00 | 55 | 1020.6 |
| 20260508164519 | 14 | 68 | 16.1 | 20.9 | 0.00 | 0.00 | 0.00 | 54 | 1020.7 |
| 20260508164018 | 14 | 68 | 16.1 | 22.5 | 0.00 | 0.00 | 0.00 | 54 | 1020.7 |
| 20260508163518 | 14 | 68 | 16.1 | 20.9 | 0.00 | 0.00 | 0.00 | 54 | 1020.7 |
| 20260508163010 | 14 | 68 | 16.1 | 20.9 | 0.00 | 0.00 | 0.00 | 54 | 1020.7 |
| 20260508162518 | 14 | 68 | 16.1 | 22.5 | 0.00 | 0.00 | 0.00 | 54 | 1020.7 |
| 20260508162018 | 14 | 68 | 16.1 | 22.5 | 0.00 | 0.00 | 0.00 | 54 | 1020.6 |
| 20260508161518 | 14 | 68 | 14.5 | 19.3 | 0.00 | 0.00 | 0.00 | 54 | 1020.7 |
| 20260508161018 | 14 | 68 | 12.9 | 17.7 | 0.00 | 0.00 | 0.00 | 54 | 1020.7 |
| 20260508160518 | 14 | 68 | 14.5 | 19.3 | 0.00 | 0.00 | 0.00 | 54 | 1020.8 |
| 20260508160009 | 14 | 68 | 14.5 | 19.3 | 0.00 | 0.00 | 0.00 | 54 | 1020.8 |
| 20260508155518 | 14 | 68 | 14.5 | 17.7 | 0.00 | 0.00 | 0.00 | 54 | 1020.6 |
| 20260508155018 | 14 | 68 | 14.5 | 17.7 | 0.00 | 0.00 | 0.00 | 54 | 1020.6 |
| 20260508154517 | 14 | 68 | 14.5 | 17.7 | 0.00 | 0.00 | 0.00 | 53 | 1020.6 |
| 20260508154017 | 15 | 68 | 12.9 | 19.3 | 0.00 | 0.00 | 0.00 | 52 | 1020.5 |
| 20260508153517 | 15 | 68 | 11.3 | 17.7 | 0.00 | 0.00 | 0.00 | 52 | 1020.6 |
| 20260508153007 | 15 | 90 | 11.3 | 19.3 | 0.00 | 0.00 | 0.00 | 51 | 1020.6 |
| 20260508152518 | 15 | 90 | 11.3 | 17.7 | 0.00 | 0.00 | 0.00 | 51 | 1020.6 |
| 20260508152039 | 15 | 90 | 12.9 | 16.1 | 0.00 | 0.00 | 0.00 | 51 | 1020.5 |
| 20260508151518 | 15 | 90 | 12.9 | 17.7 | 0.00 | 0.00 | 0.00 | 51 | 1020.6 |
| 20260508151017 | 15 | 90 | 12.9 | 17.7 | 0.00 | 0.00 | 0.00 | 50 | 1020.6 |
| 20260508150517 | 15 | 90 | 12.9 | 16.1 | 0.00 | 0.00 | 0.00 | 50 | 1020.6 |
| 20260508150006 | 15 | 90 | 12.9 | 19.3 | 0.00 | 0.00 | 0.00 | 50 | 1020.7 |
| 20260508145518 | 15 | 90 | 12.9 | 19.3 | 0.00 | 0.00 | 0.00 | 50 | 1020.7 |
| 20260508145017 | 15 | 90 | 11.3 | 19.3 | 0.00 | 0.00 | 0.00 | 50 | 1020.7 |
| 20260508144538 | 15 | 90 | 9.7 | 16.1 | 0.00 | 0.00 | 0.00 | 50 | 1020.7 |
| 20260508144017 | 15 | 90 | 9.7 | 14.5 | 0.00 | 0.00 | 0.00 | 50 | 1020.8 |
| 20260508143518 | 15 | 90 | 11.3 | 14.5 | 0.00 | 0.00 | 0.00 | 50 | 1020.9 |
| 20260508143007 | 15 | 90 | 8.0 | 14.5 | 0.00 | 0.00 | 0.00 | 49 | 1020.9 |
| 20260508142518 | 15 | 90 | 11.3 | 16.1 | 0.00 | 0.00 | 0.00 | 49 | 1020.9 |
| 20260508142018 | 16 | 90 | 12.9 | 17.7 | 0.00 | 0.00 | 0.00 | 48 | 1020.9 |
| 20260508141517 | 16 | 90 | 11.3 | 17.7 | 0.00 | 0.00 | 0.00 | 48 | 1020.9 |
| 20260508141017 | 16 | 90 | 14.5 | 19.3 | 0.00 | 0.00 | 0.00 | 47 | 1020.8 |
| 20260508140518 | 16 | 90 | 12.9 | 20.9 | 0.00 | 0.00 | 0.00 | 47 | 1020.7 |
| 20260508140006 | 15 | 113 | 11.3 | 19.3 | 0.00 | 0.00 | 0.00 | 48 | 1020.8 |
| 20260508135517 | 15 | 90 | 9.7 | 14.5 | 0.00 | 0.00 | 0.00 | 48 | 1020.6 |
| 20260508135038 | 15 | 90 | 9.7 | 12.9 | 0.00 | 0.00 | 0.00 | 49 | 1020.5 |
| 20260508134517 | 15 | 90 | 9.7 | 14.5 | 0.00 | 0.00 | 0.00 | 48 | 1020.6 |
| 20260508134038 | 15 | 90 | 11.3 | 19.3 | 0.00 | 0.00 | 0.00 | 49 | 1020.6 |
| 20260508133517 | 15 | 90 | 9.7 | 12.9 | 0.00 | 0.00 | 0.00 | 49 | 1020.5 |
| 20260508133049 | 15 | 90 | 9.7 | 14.5 | 0.00 | 0.00 | 0.00 | 48 | 1020.5 |
| 20260508132518 | 16 | 90 | 9.7 | 14.5 | 0.00 | 0.00 | 0.00 | 48 | 1020.5 |
| 20260508132038 | 15 | 68 | 11.3 | 14.5 | 0.00 | 0.00 | 0.00 | 48 | 1020.4 |
| 20260508131517 | 15 | 68 | 12.9 | 16.1 | 0.00 | 0.00 | 0.00 | 49 | 1020.4 |
| 20260508131038 | 15 | 68 | 12.9 | 14.5 | 0.00 | 0.00 | 0.00 | 49 | 1020.3 |
| 20260508130517 | 15 | 68 | 11.3 | 12.9 | 0.00 | 0.00 | 0.00 | 49 | 1020.3 |
| 20260508130007 | 15 | 68 | 11.3 | 14.5 | 0.00 | 0.00 | 0.00 | 49 | 1020.3 |
| 20260508125517 | 15 | 68 | 11.3 | 14.5 | 0.00 | 0.00 | 0.00 | 49 | 1020.2 |
| 20260508125017 | 15 | 68 | 11.3 | 14.5 | 0.00 | 0.00 | 0.00 | 49 | 1020.1 |
| 20260508124517 | 15 | 68 | 11.3 | 14.5 | 0.00 | 0.00 | 0.00 | 49 | 1020.1 |
| 20260508124018 | 15 | 68 | 11.3 | 14.5 | 0.00 | 0.00 | 0.00 | 49 | 1020.1 |
| 20260508123519 | 15 | 68 | 11.3 | 12.9 | 0.00 | 0.00 | 0.00 | 48 | 1020.0 |
| 20260508123008 | 15 | 68 | 9.7 | 12.9 | 0.00 | 0.00 | 0.00 | 47 | 1020.1 |
| 20260508122519 | 15 | 68 | 11.3 | 12.9 | 0.00 | 0.00 | 0.00 | 47 | 1020.0 |
| 20260508122039 | 16 | 68 | 9.7 | 12.9 | 0.00 | 0.00 | 0.00 | 46 | 1020.0 |
| 20260508121519 | 16 | 68 | 9.7 | 12.9 | 0.00 | 0.00 | 0.00 | 46 | 1020.1 |
| 20260508121019 | 16 | 68 | 11.3 | 14.5 | 0.00 | 0.00 | 0.00 | 45 | 1020.1 |
| 20260508120538 | 16 | 68 | 9.7 | 12.9 | 0.00 | 0.00 | 0.00 | 45 | 1019.9 |
| 20260508120008 | 16 | 68 | 9.7 | 12.9 | 0.00 | 0.00 | 0.00 | 44 | 1019.9 |
| 20260508115519 | 16 | 68 | 9.7 | 14.5 | 0.00 | 0.00 | 0.00 | 44 | 1019.8 |
| 20260508115019 | 17 | 90 | 8.0 | 14.5 | 0.00 | 0.00 | 0.00 | 43 | 1019.8 |
| 20260508114539 | 17 | 90 | 9.7 | 12.9 | 0.00 | 0.00 | 0.00 | 43 | 1019.6 |
| 20260508114019 | 17 | 68 | 9.7 | 12.9 | 0.00 | 0.00 | 0.00 | 43 | 1019.7 |
| 20260508113519 | 17 | 90 | 9.7 | 12.9 | 0.00 | 0.00 | 0.00 | 43 | 1019.6 |
| 20260508113008 | 17 | 90 | 8.0 | 12.9 | 0.00 | 0.00 | 0.00 | 43 | 1019.6 |
| 20260508112519 | 17 | 90 | 9.7 | 12.9 | 0.00 | 0.00 | 0.00 | 43 | 1019.5 |
| 20260508112039 | 17 | 90 | 8.0 | 12.9 | 0.00 | 0.00 | 0.00 | 43 | 1019.4 |
| 20260508111539 | 17 | 90 | 8.0 | 11.3 | 0.00 | 0.00 | 0.00 | 42 | 1019.4 |
| 20260508111019 | 17 | 90 | 8.0 | 11.3 | 0.00 | 0.00 | 0.00 | 41 | 1019.5 |
| 20260508110519 | 17 | 90 | 8.0 | 11.3 | 0.00 | 0.00 | 0.00 | 41 | 1019.4 |
| 20260508110008 | 18 | 90 | 8.0 | 11.3 | 0.00 | 0.00 | 0.00 | 40 | 1019.4 |
| 20260508105519 | 18 | 90 | 8.0 | 12.9 | 0.00 | 0.00 | 0.00 | 40 | 1019.3 |
| 20260508105020 | 18 | 90 | 8.0 | 11.3 | 0.00 | 0.00 | 0.00 | 39 | 1019.4 |
| 20260508104519 | 18 | 90 | 8.0 | 14.5 | 0.00 | 0.00 | 0.00 | 39 | 1019.4 |
| 20260508104019 | 18 | 90 | 8.0 | 14.5 | 0.00 | 0.00 | 0.00 | 39 | 1019.4 |
| 20260508103519 | 18 | 90 | 8.0 | 12.9 | 0.00 | 0.00 | 0.00 | 39 | 1019.4 |
| 20260508103008 | 18 | 90 | 9.7 | 12.9 | 0.00 | 0.00 | 0.00 | 39 | 1019.3 |
| 20260508102100 | 18 | 90 | 8.0 | 12.9 | 0.00 | 0.00 | 0.00 | 38 | 1019.3 |
| 20260508101539 | 19 | 90 | 8.0 | 11.3 | 0.00 | 0.00 | 0.00 | 38 | 1019.3 |
| 20260508101019 | 19 | 90 | 8.0 | 12.9 | 0.00 | 0.00 | 0.00 | 37 | 1019.3 |
| 20260508100519 | 19 | 90 | 8.0 | 12.9 | 0.00 | 0.00 | 0.00 | 37 | 1019.3 |
| 20260508100028 | 20 | 90 | 8.0 | 12.9 | 0.00 | 0.00 | 0.00 | 36 | 1019.2 |
| 20260508095519 | 20 | 90 | 8.0 | 12.9 | 0.00 | 0.00 | 0.00 | 36 | 1019.1 |
| 20260508095039 | 20 | 90 | 8.0 | 14.5 | 0.00 | 0.00 | 0.00 | 35 | 1018.9 |
| 20260508094519 | 20 | 90 | 9.7 | 12.9 | 0.00 | 0.00 | 0.00 | 35 | 1019.1 |
| 20260508094019 | 21 | 90 | 11.3 | 16.1 | 0.00 | 0.00 | 0.00 | 34 | 1019.0 |
| 20260508093519 | 21 | 90 | 12.9 | 19.3 | 0.00 | 0.00 | 0.00 | 33 | 1019.0 |
| 20260508093011 | 21 | 90 | 14.5 | 20.9 | 0.00 | 0.00 | 0.00 | 32 | 1019.1 |
| 20260508092519 | 21 | 90 | 14.5 | 20.9 | 0.00 | 0.00 | 0.00 | 32 | 1019.1 |
| 20260508092039 | 21 | 90 | 12.9 | 20.9 | 0.00 | 0.00 | 0.00 | 32 | 1019.0 |
| 20260508091520 | 22 | 90 | 12.9 | 20.9 | 0.00 | 0.00 | 0.00 | 32 | 1019.0 |
| 20260508091039 | 22 | 90 | 12.9 | 20.9 | 0.00 | 0.00 | 0.00 | 31 | 1019.0 |
| 20260508090519 | 22 | 90 | 11.3 | 20.9 | 0.00 | 0.00 | 0.00 | 31 | 1018.9 |
| 20260508090013 | 22 | 90 | 14.5 | 24.1 | 0.00 | 0.00 | 0.00 | 31 | 1019.0 |
| 20260508085518 | 22 | 90 | 17.7 | 25.7 | 0.00 | 0.00 | 0.00 | 31 | 1018.9 |
| 20260508085018 | 22 | 90 | 14.5 | 20.9 | 0.00 | 0.00 | 0.00 | 31 | 1018.9 |
| 20260508084518 | 22 | 90 | 16.1 | 25.7 | 0.00 | 0.00 | 0.00 | 31 | 1018.9 |
| 20260508084039 | 22 | 90 | 17.7 | 25.7 | 0.00 | 0.00 | 0.00 | 31 | 1018.9 |
| 20260508083519 | 23 | 90 | 17.7 | 30.6 | 0.00 | 0.00 | 0.00 | 31 | 1018.9 |
| 20260508083006 | 23 | 90 | 17.7 | 27.4 | 0.00 | 0.00 | 0.00 | 30 | 1018.9 |
| 20260508082519 | 23 | 90 | 16.1 | 22.5 | 0.00 | 0.00 | 0.00 | 30 | 1018.9 |
| 20260508082019 | 23 | 90 | 16.1 | 25.7 | 0.00 | 0.00 | 0.00 | 30 | 1018.9 |
| 20260508081519 | 23 | 90 | 17.7 | 24.1 | 0.00 | 0.00 | 0.00 | 31 | 1018.8 |
| 20260508081018 | 23 | 90 | 19.3 | 29.0 | 0.00 | 0.00 | 0.00 | 30 | 1018.7 |
| 20260508080519 | 23 | 90 | 19.3 | 33.8 | 0.00 | 0.00 | 0.00 | 30 | 1018.7 |
| 20260508080048 | 23 | 90 | 16.1 | 25.7 | 0.00 | 0.00 | 0.00 | 30 | 1018.8 |
| 20260508075539 | 23 | 90 | 19.3 | 27.4 | 0.00 | 0.00 | 0.00 | 30 | 1018.8 |
| 20260508075039 | 23 | 90 | 17.7 | 25.7 | 0.00 | 0.00 | 0.00 | 30 | 1018.8 |
| 20260508074518 | 23 | 90 | 17.7 | 30.6 | 0.00 | 0.00 | 0.00 | 30 | 1018.8 |
| 20260508074019 | 23 | 68 | 16.1 | 27.4 | 0.00 | 0.00 | 0.00 | 30 | 1018.8 |
| 20260508073518 | 23 | 90 | 17.7 | 32.2 | 0.00 | 0.00 | 0.00 | 30 | 1018.8 |
| 20260508073006 | 23 | 90 | 14.5 | 22.5 | 0.00 | 0.00 | 0.00 | 30 | 1018.8 |
| 20260508072519 | 24 | 90 | 17.7 | 30.6 | 0.00 | 0.00 | 0.00 | 29 | 1019.0 |
| 20260508072018 | 24 | 90 | 14.5 | 25.7 | 0.00 | 0.00 | 0.00 | 30 | 1019.0 |
| 20260508071539 | 23 | 90 | 16.1 | 24.1 | 0.00 | 0.00 | 0.00 | 30 | 1019.0 |
| 20260508071018 | 23 | 68 | 20.9 | 38.6 | 0.00 | 0.00 | 0.00 | 30 | 1018.8 |
| 20260508070518 | 23 | 68 | 19.3 | 27.4 | 0.00 | 0.00 | 0.00 | 30 | 1019.0 |
| 20260508070006 | 23 | 90 | 14.5 | 22.5 | 0.00 | 0.00 | 0.00 | 31 | 1019.0 |
| 20260508065539 | 23 | 113 | 16.1 | 30.6 | 0.00 | 0.00 | 0.00 | 30 | 1019.0 |
| 20260508065018 | 24 | 90 | 12.9 | 20.9 | 0.00 | 0.00 | 0.00 | 30 | 1019.1 |
| 20260508064519 | 23 | 90 | 17.7 | 29.0 | 0.00 | 0.00 | 0.00 | 30 | 1019.0 |
| 20260508064019 | 23 | 90 | 17.7 | 24.1 | 0.00 | 0.00 | 0.00 | 30 | 1019.0 |
| 20260508063518 | 24 | 68 | 19.3 | 32.2 | 0.00 | 0.00 | 0.00 | 30 | 1019.1 |
| 20260508063011 | 23 | 90 | 19.3 | 29.0 | 0.00 | 0.00 | 0.00 | 30 | 1019.0 |
| 20260508062518 | 23 | 68 | 14.5 | 25.7 | 0.00 | 0.00 | 0.00 | 30 | 1019.0 |
| 20260508062041 | 23 | 90 | 17.7 | 25.7 | 0.00 | 0.00 | 0.00 | 30 | 1019.0 |
| 20260508061518 | 23 | 68 | 17.7 | 24.1 | 0.00 | 0.00 | 0.00 | 29 | 1019.0 |
| 20260508061039 | 23 | 90 | 19.3 | 29.0 | 0.00 | 0.00 | 0.00 | 32 | 1019.0 |
| 20260508060518 | 23 | 68 | 19.3 | 29.0 | 0.00 | 0.00 | 0.00 | 31 | 1019.0 |
| 20260508060006 | 23 | 90 | 14.5 | 29.0 | 0.00 | 0.00 | 0.00 | 31 | 1019.1 |
| 20260508055539 | 23 | 68 | 22.5 | 35.4 | 0.00 | 0.00 | 0.00 | 31 | 1019.2 |
| 20260508055018 | 23 | 68 | 24.1 | 30.6 | 0.00 | 0.00 | 0.00 | 30 | 1019.1 |